Wind_Speed
45 45 46 47 48 48 49 49 49 49 49 49 49 48 49 49 48 49 49 48 48 48 48 48 48 48 49 49 49 49 49 49 49 49 49 49 49 49
46 47 48 49 49 49 50 50 51 52 51 50 50 50 50 50 50 50 50 50 50 50 50 49 49 49 49 49 50 50 51 51 51 51 51 51 52 51
48 49 50 50 51 51 51 52 52 53 53 52 52 52 52 52 52 52 51 51 51 51 50 50 51 50 50 50 51 51 51 51 51 52 52 52 52 52
49 50 51 51 52 53 53 54 54 54 54 53 52 53 53 53 52 52 52 52 51 51 51 51 51 51 51 51 51 51 51 51 51 52 52 52 52 51
50 51 51 52 53 54 54 54 54 54 55 55 54 54 54 53 53 53 53 53 52 52 53 52 52 52 52 52 52 52 52 52 52 52 52 52 51 51
51 51 52 53 53 54 55 55 55 55 55 55 54 54 54 54 54 53 53 53 53 53 54 53 53 53 53 53 54 54 53 53 52 52 52 52 51 51
52 52 53 54 54 55 55 55 55 55 55 55 55 54 54 54 54 54 54 54 54 54 54 54 54 54 54 54 54 54 54 53 52 52 52 52 52 51
53 53 54 54 54 54 55 55 55 55 54 55 55 55 54 54 54 54 54 54 53 53 54 54 54 54 54 54 53 53 53 52 52 51 51 51 52 51
52 52 52 53 53 54 54 54 54 54 54 54 54 54 53 53 53 53 53 53 52 53 53 53 53 53 53 53 53 52 52 52 51 51 50 50 50 51
52 52 52 52 53 53 53 53 53 53 53 53 53 52 52 52 52 52 51 51 50 51 51 51 51 51 52 52 51 51 50 50 50 49 49 49 48 48
52 53 53 53 53 53 53 52 52 52 52 51 51 51 50 50 50 50 50 49 48 48 49 49 49 50 49 49 48 48 48 48 48 48 48 48 47 47
51 52 52 53 52 53 53 52 51 50 50 49 49 49 48 48 48 49 48 48 48 47 47 48 48 48 47 46 46 46 47 47 46 46 46 47 46 46
50 50 50 51 52 52 52 51 50 49 48 48 47 47 47 47 47 47 46 47 47 46 46 46 45 44 44 44 44 44 44 45 45 44 45 45 45 44
48 48 48 48 49 48 48 47 47 46 46 45 45 45 44 44 44 44 45 44 44 43 43 43 42 42 42 41 41 42 42 43 43 43 43 43 43 43
47 47 47 47 47 46 46 45 44 44 44 43 43 42 42 42 42 42 42 42 41 40 40 40 40 39 39 39 39 39 40 40 41 41 41 42 42 42
46 46 45 45 44 44 43 42 42 42 41 41 40 40 40 40 40 40 39 39 39 38 39 39 38 37 37 38 38 38 39 38 38 39 39 39 40 40
44 44 43 43 42 41 41 41 40 39 38 38 38 37 37 37 37 37 37 36 36 36 36 36 35 35 36 36 36 37 37 36 36 37 37 37 37 38
42 42 41 41 41 40 40 39 38 37 36 36 35 34 34 35 35 34 34 34 33 33 34 34 33 34 34 34 34 34 34 35 35 35 35 35 34 35
41 40 39 39 39 39 38 37 36 35 34 34 33 33 33 33 33 32 32 32 31 32 33 33 32 32 32 31 32 32 32 32 32 33 33 33 33 32
39 39 38 38 37 36 36 35 34 33 32 32 32 32 31 31 31 31 30 30 31 31 32 31 31 30 30 30 29 29 29 29 29 29 30 31 31 31
36 36 36 36 35 34 33 32 32 31 31 31 31 31 30 30 30 29 30 30 30 30 29 29 28 28 28 27 27 26 26 27 27 27 28 29 29 29
34 34 34 34 33 32 31 31 30 30 29 29 30 30 30 30 29 28 28 28 28 28 27 26 26 26 26 26 25 25 24 25 25 26 27 27 27 27
32 32 32 31 31 31 30 29 29 29 28 28 28 28 29 28 27 27 26 26 25 25 24 23 23 24 24 24 24 24 24 24 24 25 25 26 27 27
Wind_Direction
272 272 273 273 273 274 275 275 276 275 275 276 276 276 276 276 277 278 278 278 277 276 275 275 275 274 274 273 272 272 272 271 272 271 271 270 270 270
272 273 274 274 274 275 275 276 277 277 277 276 276 276 276 277 278 278 278 278 277 276 275 274 274 274 273 272 273 272 272 272 272 272 272 271 270 270
273 273 273 274 274 275 276 276 277 277 277 276 276 276 277 277 277 277 277 277 276 276 274 273 273 273 273 273 273 273 273 273 273 273 272 271 270 269
273 273 273 274 274 275 276 277 277 277 277 276 276 277 278 278 277 277 277 277 276 275 274 273 273 273 274 274 274 274 274 273 273 272 271 271 270 269
273 274 274 274 275 275 276 277 277 278 278 278 277 277 278 278 277 277 277 277 276 274 274 273 274 273 273 274 274 274 274 274 273 272 271 271 270 268
274 274 274 274 275 276 276 277 277 277 278 278 278 278 278 278 277 276 276 276 276 275 274 274 274 274 274 274 273 273 273 273 272 272 271 270 269 268
274 275 275 275 276 276 277 277 277 277 278 278 278 278 278 277 277 276 276 276 276 276 275 274 275 275 274 274 274 273 273 273 272 272 271 270 269 268
275 275 276 276 276 276 276 277 277 277 278 278 278 278 278 277 277 277 276 275 275 275 275 275 275 275 275 274 274 273 273 273 273 272 271 271 269 268
275 275 276 276 276 277 277 277 277 278 278 279 278 278 277 277 277 277 277 276 275 275 275 275 276 276 276 275 275 274 274 273 272 272 271 271 270 270
275 275 276 276 277 277 276 277 277 278 279 278 278 278 277 277 277 277 277 277 276 277 276 276 276 276 275 275 275 274 273 272 272 271 271 271 271 270
276 276 276 276 277 278 277 277 277 277 277 277 277 277 277 277 277 277 277 277 277 277 277 276 276 276 276 275 274 273 272 272 271 271 271 271 271 271
276 276 277 277 277 278 277 277 277 277 276 275 276 277 277 278 278 278 278 278 278 278 277 277 277 277 276 274 273 273 272 272 271 271 271 271 271 271
276 276 277 278 278 278 277 277 277 275 275 275 276 276 277 278 278 279 279 280 280 279 278 278 278 277 276 274 274 273 272 272 271 271 271 271 271 270
276 276 277 278 278 278 277 277 276 276 275 275 275 276 277 278 278 279 280 280 280 280 279 278 278 277 276 276 274 273 272 272 271 271 271 270 270 270
277 277 277 278 278 278 278 277 276 276 276 275 275 275 277 277 278 280 280 280 279 279 279 279 278 277 277 276 274 273 273 272 272 271 270 271 270 270
278 278 278 278 278 277 276 276 275 276 275 274 275 275 276 277 279 280 280 279 278 278 279 278 279 278 277 277 276 275 274 273 272 272 272 272 272 272
278 278 278 278 278 277 276 276 276 275 275 275 275 276 276 278 279 280 279 278 278 279 279 279 278 277 277 277 276 276 274 273 274 274 273 273 273 273
277 278 278 277 277 276 276 276 275 274 273 274 275 275 277 278 279 279 279 278 279 280 280 280 279 279 278 277 277 277 274 274 274 275 274 273 273 273
276 276 276 277 277 276 275 274 273 272 272 273 274 276 277 278 279 279 279 278 279 281 281 280 280 279 278 278 279 278 276 275 275 276 275 274 274 274
275 276 276 277 276 275 275 274 272 271 271 273 274 276 278 279 279 279 279 278 279 281 282 281 281 280 279 279 280 280 279 277 276 277 276 275 275 276
276 276 276 275 275 275 274 272 270 270 271 272 274 276 278 278 277 278 279 279 280 282 283 282 281 279 279 279 280 279 279 279 279 279 279 279 278 277
278 277 276 274 273 273 272 271 269 269 270 272 274 275 276 277 277 278 279 279 281 283 283 282 281 280 279 279 280 280 279 280 281 282 283 283 282 281
278 277 276 274 272 271 270 269 268 268 270 272 274 275 275 275 275 276 278 279 281 283 283 282 283 282 279 278 280 281 280 281 281 283 284 285 285 285
Height
5705 5704 5704 5703 5702 5701 5701 5700 5699 5699 5699 5697 5694 5692 5690 5689 5687 5685 5684 5682 5681 5679 5678 5677 5677 5676 5675 5675 5675 5674 5674 5674 5674 5674 5674 5674 5674 5674
5692 5691 5691 5690 5689 5688 5687 5686 5685 5684 5684 5684 5681 5679 5677 5675 5673 5671 5670 5668 5667 5666 5664 5663 5662 5662 5661 5661 5660 5660 5660 5660 5660 5660 5659 5659 5660 5660
5679 5678 5677 5676 5675 5674 5673 5672 5670 5669 5669 5669 5667 5665 5662 5661 5659 5657 5655 5654 5652 5651 5650 5649 5648 5647 5647 5646 5646 5645 5645 5645 5644 5644 5644 5644 5644 5645
5665 5664 5663 5662 5661 5660 5658 5657 5655 5654 5653 5653 5652 5650 5648 5646 5644 5642 5641 5639 5638 5637 5635 5634 5633 5633 5632 5631 5631 5630 5630 5629 5629 5629 5629 5629 5629 5629
5651 5650 5648 5647 5646 5645 5643 5642 5640 5639 5637 5637 5637 5635 5633 5630 5629 5627 5626 5624 5623 5622 5621 5620 5618 5617 5617 5616 5616 5615 5615 5615 5614 5614 5613 5613 5614 5614
5636 5635 5633 5632 5631 5630 5628 5627 5625 5623 5622 5621 5621 5619 5617 5615 5613 5612 5610 5609 5608 5606 5605 5604 5603 5602 5601 5601 5600 5599 5599 5598 5598 5597 5597 5598 5598 5598
5621 5620 5618 5617 5615 5614 5613 5611 5609 5608 5606 5605 5604 5603 5602 5599 5597 5595 5594 5593 5592 5590 5589 5588 5587 5586 5585 5584 5583 5583 5582 5581 5581 5581 5581 5581 5582 5582
5606 5605 5603 5601 5599 5598 5596 5595 5594 5592 5591 5589 5588 5587 5585 5583 5581 5579 5578 5577 5577 5576 5573 5572 5571 5570 5569 5568 5567 5567 5566 5565 5565 5565 5565 5565 5565 5566
5591 5589 5588 5586 5584 5582 5581 5579 5578 5576 5575 5573 5571 5570 5569 5567 5565 5563 5562 5560 5560 5558 5557 5557 5555 5554 5553 5552 5551 5550 5550 5549 5549 5549 5549 5549 5549 5550
5575 5574 5573 5571 5569 5566 5565 5564 5563 5561 5559 5557 5556 5554 5552 5550 5548 5547 5546 5545 5544 5542 5540 5541 5539 5538 5537 5536 5535 5534 5533 5533 5533 5533 5533 5534 5534 5534
5560 5559 5557 5556 5554 5552 5550 5549 5548 5546 5543 5541 5540 5538 5536 5535 5533 5532 5531 5530 5530 5528 5525 5525 5524 5523 5522 5520 5519 5518 5518 5518 5518 5518 5518 5519 5519 5519
5545 5544 5542 5540 5538 5536 5534 5533 5532 5531 5528 5527 5525 5524 5522 5520 5519 5517 5516 5515 5514 5514 5512 5510 5509 5507 5507 5507 5505 5504 5503 5503 5503 5503 5503 5503 5504 5504
5530 5529 5527 5525 5523 5521 5519 5518 5516 5515 5514 5513 5511 5510 5508 5507 5505 5503 5502 5500 5500 5499 5497 5496 5495 5493 5492 5493 5492 5490 5489 5489 5488 5488 5488 5488 5489 5489
5515 5514 5512 5510 5508 5506 5505 5503 5502 5501 5500 5499 5498 5497 5496 5494 5492 5490 5489 5487 5486 5485 5483 5481 5481 5480 5479 5478 5478 5477 5476 5475 5474 5474 5474 5474 5475 5475
5500 5499 5498 5496 5494 5493 5491 5490 5488 5487 5486 5486 5485 5484 5483 5481 5480 5478 5476 5474 5473 5471 5470 5468 5467 5467 5465 5465 5465 5464 5463 5462 5461 5461 5461 5461 5461 5461
5486 5485 5484 5482 5481 5479 5478 5476 5475 5474 5473 5473 5473 5472 5470 5469 5468 5466 5465 5463 5462 5460 5458 5456 5455 5454 5453 5452 5452 5451 5450 5449 5449 5448 5448 5448 5448 5448
5473 5472 5471 5470 5468 5467 5465 5464 5463 5462 5461 5461 5460 5460 5459 5457 5456 5455 5453 5452 5451 5450 5448 5446 5444 5443 5442 5440 5440 5439 5438 5437 5436 5436 5436 5436 5435 5435
5461 5459 5458 5457 5456 5454 5453 5452 5451 5451 5450 5450 5449 5448 5448 5447 5445 5444 5442 5441 5440 5439 5437 5436 5434 5433 5431 5430 5429 5427 5426 5426 5425 5425 5424 5424 5425 5424
5448 5447 5446 5445 5444 5443 5442 5441 5440 5440 5439 5439 5439 5438 5437 5436 5435 5434 5433 5432 5431 5429 5427 5425 5424 5422 5421 5421 5420 5417 5416 5415 5414 5414 5414 5414 5414 5414
5437 5436 5435 5434 5433 5432 5431 5430 5429 5429 5429 5429 5429 5428 5427 5427 5426 5424 5423 5422 5421 5420 5418 5416 5414 5412 5411 5411 5410 5409 5406 5405 5405 5404 5404 5403 5403 5403
5426 5425 5424 5423 5422 5421 5420 5420 5419 5419 5419 5419 5419 5419 5418 5417 5416 5415 5414 5413 5412 5410 5409 5407 5405 5403 5402 5401 5401 5400 5398 5397 5396 5395 5395 5395 5394 5394
5415 5414 5413 5412 5411 5411 5410 5410 5410 5410 5410 5410 5410 5409 5409 5408 5407 5406 5405 5404 5403 5401 5400 5398 5397 5395 5394 5393 5393 5392 5391 5390 5388 5386 5385 5385 5384 5384
5405 5404 5403 5402 5402 5401 5401 5401 5401 5401 5401 5401 5401 5400 5400 5399 5398 5398 5397 5396 5395 5393 5392 5391 5389 5388 5387 5386 5385 5384 5383 5382 5381 5380 5378 5376 5375 5374